Epic Capri — 9HA2845 — position and weather

sailwx.info

Track history (hours):
 
Tides and Currents Weather Stations Pressure Air Temp Water Temp Dewpoint Dewpoint Depression Visibility Wind Speed Wind Dir Waves Ship Positions

Epic Capri

Last reported at 2014-Oct-21 01:33 UTC. Time now 2014-Oct-21 11:53 UTC.
Position N 39°52' W 009°32'.

Length 99 m; draft 5.5 m.

Type: Tanker. MMSI: 256325000.

Date/timePositionNaut miles runAvg speedWind from/ knotsBaromVisibWave heightAir tempDewpointWater temp
2014-Oct-21 01:33N 39°52' W 009°32'86 9.2
2014-Oct-20 16:11N 38°27' W 009°53'6 9.1
2014-Oct-20 15:31N 38°21' W 009°51'9 9.3
2014-Oct-20 14:33N 38°16' W 009°41'10 9.5
2014-Oct-20 13:33N 38°12' W 009°30'10 9.7
2014-Oct-20 12:33N 38°08' W 009°19'10 9.8
2014-Oct-20 11:33N 38°03' W 009°08'10 9.5
2014-Oct-20 10:33N 37°58' W 008°58'4 4.1
2014-Oct-20 09:33N 37°57' W 008°53'0 0.0
2014-Oct-20 08:33N 37°57' W 008°53'0 0.0
2014-Oct-20 07:29N 37°57' W 008°53'0 0.0
2014-Oct-20 06:32N 37°57' W 008°53'0 0.0
2014-Oct-20 05:32N 37°57' W 008°53'0 0.0
2014-Oct-20 04:32N 37°57' W 008°53'0 0.0
2014-Oct-20 03:32N 37°57' W 008°53'0 0.0
2014-Oct-20 02:29N 37°57' W 008°53'0 0.0
2014-Oct-20 01:32N 37°57' W 008°53'0 0.0
2014-Oct-20 00:32N 37°57' W 008°53'0 0.0
2014-Oct-19 23:32N 37°57' W 008°53'0 0.0
2014-Oct-19 22:32N 37°57' W 008°53'0 0.0
2014-Oct-19 21:32N 37°57' W 008°53'0 0.0
2014-Oct-19 20:32N 37°57' W 008°53'0 0.0
2014-Oct-19 19:32N 37°57' W 008°53'0 0.0
2014-Oct-19 18:32N 37°57' W 008°53'0 0.0
2014-Oct-19 17:32N 37°57' W 008°53'0 0.0
2014-Oct-19 16:32N 37°57' W 008°53'0 0.0
2014-Oct-19 15:32N 37°57' W 008°53'3 2.3
2014-Oct-19 14:26N 37°57' W 008°56'910.1
2014-Oct-19 13:33N 38°02' W 009°06'1010.4
2014-Oct-19 12:33N 38°06' W 009°18'1010.5
2014-Oct-19 11:34N 38°10' W 009°31'1010.3
2014-Oct-19 10:32N 38°13' W 009°43'10 9.8
2014-Oct-19 09:33N 38°17' W 009°55'10 9.5
2014-Oct-19 08:33N 38°21' W 010°06'10 9.6
2014-Oct-19 07:33N 38°30' W 010°09'1010.0
2014-Oct-19 06:32N 38°40' W 010°12'  
2014-Oct-15 15:04N 38°10' W 009°25'4 7.8
2014-Oct-15 14:33N 38°08' W 009°21'9 8.4
2014-Oct-15 13:33N 38°04' W 009°11'9 9.1
2014-Oct-15 12:33N 38°00' W 009°01'7 7.1
2014-Oct-15 11:33N 37°56' W 008°53'1 0.6
2014-Oct-15 10:33N 37°57' W 008°53'0 0.0
2014-Oct-15 09:32N 37°57' W 008°53'0 0.0
2014-Oct-15 08:32N 37°57' W 008°53'0 0.0
2014-Oct-15 07:32N 37°57' W 008°53'0 0.0
2014-Oct-15 06:32N 37°57' W 008°53'0 0.0
2014-Oct-15 05:32N 37°57' W 008°53'0 0.0
2014-Oct-15 04:32N 37°57' W 008°53'0 0.0
2014-Oct-15 03:32N 37°57' W 008°53'0 0.0
2014-Oct-15 02:29N 37°57' W 008°53'0 0.0
2014-Oct-15 01:32N 37°57' W 008°53'0 0.0
2014-Oct-15 00:32N 37°57' W 008°53'0 0.0
2014-Oct-14 23:32N 37°57' W 008°53'0 0.0
2014-Oct-14 22:32N 37°57' W 008°53'0 0.0
2014-Oct-14 21:32N 37°57' W 008°53'0 0.0
2014-Oct-14 20:32N 37°57' W 008°53'0 0.0
2014-Oct-14 19:32N 37°57' W 008°53'0 0.0
2014-Oct-14 18:32N 37°57' W 008°53'2 2.1
2014-Oct-14 17:31N 37°55' W 008°52'0 0.0
2014-Oct-14 16:31N 37°55' W 008°52'0 0.0
2014-Oct-14 15:31N 37°55' W 008°52'0 0.0
2014-Oct-14 14:31N 37°55' W 008°52'0 0.0
2014-Oct-14 13:31N 37°55' W 008°52'0 0.0
2014-Oct-14 12:31N 37°55' W 008°52'0 0.0
2014-Oct-14 11:31N 37°55' W 008°52'4 4.5
2014-Oct-14 10:33N 37°52' W 008°56'1010.2
2014-Oct-14 09:33N 37°46' W 009°06'1010.0
2014-Oct-14 08:33N 37°40' W 009°16'10 9.8
2014-Oct-14 07:32N 37°33' W 009°26'  
Track history (hours):
 
Tides and Currents Weather Stations Pressure Air Temp Water Temp Dewpoint Dewpoint Depression Visibility Wind Speed Wind Dir Waves Ship Positions

Epic Capri

Last reported at 2014-Oct-21 01:33 UTC. Time now 2014-Oct-21 11:53 UTC.
Position N 39°52' W 009°32'.

Length 99 m; draft 5.5 m.

Type: Tanker. MMSI: 256325000.

Date/timePositionNaut miles runAvg speedWind from/ knotsBaromVisibWave heightAir tempDewpointWater temp
2014-Oct-21 01:33N 39°52' W 009°32'86 9.2
2014-Oct-20 16:11N 38°27' W 009°53'6 9.1
2014-Oct-20 15:31N 38°21' W 009°51'9 9.3
2014-Oct-20 14:33N 38°16' W 009°41'10 9.5
2014-Oct-20 13:33N 38°12' W 009°30'10 9.7
2014-Oct-20 12:33N 38°08' W 009°19'10 9.8
2014-Oct-20 11:33N 38°03' W 009°08'10 9.5
2014-Oct-20 10:33N 37°58' W 008°58'4 4.1
2014-Oct-20 09:33N 37°57' W 008°53'0 0.0
2014-Oct-20 08:33N 37°57' W 008°53'0 0.0
2014-Oct-20 07:29N 37°57' W 008°53'0 0.0
2014-Oct-20 06:32N 37°57' W 008°53'0 0.0
2014-Oct-20 05:32N 37°57' W 008°53'0 0.0
2014-Oct-20 04:32N 37°57' W 008°53'0 0.0
2014-Oct-20 03:32N 37°57' W 008°53'0 0.0
2014-Oct-20 02:29N 37°57' W 008°53'0 0.0
2014-Oct-20 01:32N 37°57' W 008°53'0 0.0
2014-Oct-20 00:32N 37°57' W 008°53'0 0.0
2014-Oct-19 23:32N 37°57' W 008°53'0 0.0
2014-Oct-19 22:32N 37°57' W 008°53'0 0.0
2014-Oct-19 21:32N 37°57' W 008°53'0 0.0
2014-Oct-19 20:32N 37°57' W 008°53'0 0.0
2014-Oct-19 19:32N 37°57' W 008°53'0 0.0
2014-Oct-19 18:32N 37°57' W 008°53'0 0.0
2014-Oct-19 17:32N 37°57' W 008°53'0 0.0
2014-Oct-19 16:32N 37°57' W 008°53'0 0.0
2014-Oct-19 15:32N 37°57' W 008°53'3 2.3
2014-Oct-19 14:26N 37°57' W 008°56'910.1
2014-Oct-19 13:33N 38°02' W 009°06'1010.4
2014-Oct-19 12:33N 38°06' W 009°18'1010.5
2014-Oct-19 11:34N 38°10' W 009°31'1010.3
2014-Oct-19 10:32N 38°13' W 009°43'10 9.8
2014-Oct-19 09:33N 38°17' W 009°55'10 9.5
2014-Oct-19 08:33N 38°21' W 010°06'10 9.6
2014-Oct-19 07:33N 38°30' W 010°09'1010.0
2014-Oct-19 06:32N 38°40' W 010°12'  
2014-Oct-15 15:04N 38°10' W 009°25'4 7.8
2014-Oct-15 14:33N 38°08' W 009°21'9 8.4
2014-Oct-15 13:33N 38°04' W 009°11'9 9.1
2014-Oct-15 12:33N 38°00' W 009°01'7 7.1
2014-Oct-15 11:33N 37°56' W 008°53'1 0.6
2014-Oct-15 10:33N 37°57' W 008°53'0 0.0
2014-Oct-15 09:32N 37°57' W 008°53'0 0.0
2014-Oct-15 08:32N 37°57' W 008°53'0 0.0
2014-Oct-15 07:32N 37°57' W 008°53'0 0.0
2014-Oct-15 06:32N 37°57' W 008°53'0 0.0
2014-Oct-15 05:32N 37°57' W 008°53'0 0.0
2014-Oct-15 04:32N 37°57' W 008°53'0 0.0
2014-Oct-15 03:32N 37°57' W 008°53'0 0.0
2014-Oct-15 02:29N 37°57' W 008°53'0 0.0
2014-Oct-15 01:32N 37°57' W 008°53'0 0.0
2014-Oct-15 00:32N 37°57' W 008°53'0 0.0
2014-Oct-14 23:32N 37°57' W 008°53'0 0.0
2014-Oct-14 22:32N 37°57' W 008°53'0 0.0
2014-Oct-14 21:32N 37°57' W 008°53'0 0.0
2014-Oct-14 20:32N 37°57' W 008°53'0 0.0
2014-Oct-14 19:32N 37°57' W 008°53'0 0.0
2014-Oct-14 18:32N 37°57' W 008°53'2 2.1
2014-Oct-14 17:31N 37°55' W 008°52'0 0.0
2014-Oct-14 16:31N 37°55' W 008°52'0 0.0
2014-Oct-14 15:31N 37°55' W 008°52'0 0.0
2014-Oct-14 14:31N 37°55' W 008°52'0 0.0
2014-Oct-14 13:31N 37°55' W 008°52'0 0.0
2014-Oct-14 12:31N 37°55' W 008°52'0 0.0
2014-Oct-14 11:31N 37°55' W 008°52'4 4.5
2014-Oct-14 10:33N 37°52' W 008°56'1010.2
2014-Oct-14 09:33N 37°46' W 009°06'1010.0
2014-Oct-14 08:33N 37°40' W 009°16'10 9.8
2014-Oct-14 07:32N 37°33' W 009°26'  

Dump ship's entire track history